Location: Amon Carter Post Office
(32.8281°N, 97.0484°W)
Time: 03:24:25
(UTC+00:00)

CZ-2C R/B - Visible Passes

Search period start: 28 June 2022 00:00
Search period end: 08 July 2022 00:00
Orbit: 785 x 869 km, 98.2° (Epoch: 27 June)

Date Brightness Start Highest point End Pass type
(mag) Time Alt. Az. Time Alt. Az. Time Alt. Az.
28 Jun 5.4 09:57:22 10° ESE 10:01:22 21° ENE 10:05:26 10° NNE visible
29 Jun 5.7 09:40:09 10° E 09:42:56 14° ENE 09:45:44 10° NNE visible
01 Jul 3.6 10:39:55 10° SSE 10:45:16 56° ENE 10:50:44 10° N visible
02 Jul 4.4 10:21:42 10° SE 10:26:42 37° ENE 10:31:48 10° N visible
03 Jul 5.1 10:03:46 10° ESE 10:08:12 25° ENE 10:12:40 10° NNE visible
04 Jul 5.6 09:46:17 10° ESE 09:49:45 17° ENE 09:53:14 10° NNE visible
05 Jul 5.9 09:29:46 10° E 09:31:20 11° ENE 09:32:54 10° NE visible
06 Jul 3.3 10:46:40 10° SSE 10:52:09 67° ENE 10:57:44 10° N visible
07 Jul 4.1 10:28:20 10° SE 10:33:35 44° ENE 10:38:52 10° N visible
